Regional Weather Roundup
Issued by NWS Boston, MA

Current Version | Previous Version | Text Only | Print | Product List | Glossary Off
Versions: 1 2 3 4 5 6 7 8 9 10 11 12 13 14 15 16 17 18 19 20 21 22 23 24 25 26 27 28 29 30 31 32 33 34 35 36 37 38 39 40 41 42 43 44 45 46 47 48 49 50
797 ASUS41 KBOX 240010 RWRBOX REGIONAL WEATHER ROUNDUP NATIONAL WEATHER SERVICE TAUNTON MA 800 PM EDT FRI JUN 23 2017 NOTE: "FAIR" INDICATES FEW OR NO CLOUDS BELOW 12,000 FEET WITH NO SIGNIFICANT WEATHER AND/OR OBSTRUCTIONS TO VISIBILITY. MAZALL-240100- EASTERN MASSACHUSETTS CITY SKY/WX TMP DP RH WIND PRES REMARKS BOSTON MOCLDY 77 69 76 SW16G26 29.60F 6HR MIN TEMP: 76; 6HR MAX TEMP: 87; 6HR PCP: TRACE; BEVERLY PTCLDY 78 70 76 S8 29.58S LAWRENCE MOCLDY 82 70 66 SW10 29.60R BEDFORD CLOUDY 79 67 66 S16 29.58S BLUE HILL N/A 74 68 81 S17G28 29.63S NORWOOD CLOUDY 77 70 79 S12 29.62R MARSHFIELD CLOUDY 73 70 88 SW15G24 29.63S PLYMOUTH CLOUDY 71 66 84 SW15G31 29.66F TAUNTON CLOUDY 72 67 84 SW10G22 29.65F NEW BEDFORD CLOUDY 71 67 87 SW16G23 29.66F $$ MAZALL-240100- CAPE COD AND THE ISLANDS CITY SKY/WX TMP DP RH WIND PRES REMARKS FALMOUTH CLOUDY 72 66 83 SW21G29 29.69F HYANNIS CLOUDY 71 66 84 SW20G33 29.67F CHATHAM CLOUDY 70 67 90 SW15G24 29.71S PROVINCETOWN CLOUDY 69 65 86 SW18G25 29.66F NANTUCKET CLOUDY 65 64 97 S15 29.73S MARTHAS VNYRD CLOUDY 68 64 87 S18 29.70F $$ MAZALL-240100- CENTRAL AND WESTERN MASSACHUSETTS CITY SKY/WX TMP DP RH WIND PRES REMARKS WORCESTER CLOUDY 73 68 84 SW16 29.64F 6HR MIN TEMP: 73; 6HR MAX TEMP: 85; 6HR PCP: TRACE; FITCHBURG CLOUDY 78 71 79 S7G18 29.61F ORANGE CLOUDY 76 71 85 S8 29.61S SPRINGFIELD MOCLDY 79 70 73 S10 29.60S WESTFIELD MOCLDY 79 70 73 MISG 29.60S NORTH ADAMS CLOUDY 78 68 71 SW7 29.60R PITTSFIELD CLOUDY 75 67 76 S8 29.62S $$ RIZALL-240100- RHODE ISLAND CITY SKY/WX TMP DP RH WIND PRES REMARKS PROVIDENCE CLOUDY 74 70 87 SW15G21 29.66S 6HR MIN TEMP: 74; 6HR MAX TEMP: 85; 6HR PCP: TRACE; NEWPORT CLOUDY 68 67 96 S12G23 29.67F BLOCK ISLAND CLOUDY 68 65 90 SW15 29.69F WESTERLY CLOUDY 72 68 87 SW13G18 29.68F $$ CTZALL-240100- CONNECTICUT CITY SKY/WX TMP DP RH WIND PRES REMARKS BRADLEY INTL MOCLDY 79 71 76 S10 29.61F 6HR MIN TEMP: 77; 6HR MAX TEMP: 90; 6HR PCP: 0.01; HARTFORD MOCLDY 78 71 79 S10 29.62S BRIDGEPORT PTCLDY 77 69 76 S14 29.63F DANBURY MOCLDY 80 72 76 S8 29.65F GROTON PTCLDY 70 68 93 SW8 29.67S NEW HAVEN PTCLDY 75 70 83 S10 29.65S CHESTER FAIR 73 72 94 S8G15 29.67S MERIDEN CLOUDY 76 70 82 S10 29.64S WILLIMANTIC MOCLDY 79 71 76 S9 29.64F OXFORD MOCLDY 75 68 78 SW9 29.67S $$ MEZ002-015-021-024-NHZ003-005-008-011-012-014-VTZ005-008-240100- NORTHERN NEW ENGLAND CITY SKY/WX TMP DP RH WIND PRES REMARKS PORTLAND ME MOCLDY 68 63 84 S13G25 29.58F 6HR MIN TEMP: 66; 6HR MAX TEMP: 74; 6HR PCP: TRACE; BANGOR ME CLOUDY 66 64 93 S10 29.62F FOG CONCORD NH CLOUDY 82 65 56 S8 29.56S MANCHESTER NH CLOUDY 80 66 62 SW12G20 29.56R NASHUA NH CLOUDY 79 71 76 VRB6 29.59R PORTSMOUTH NH MOCLDY 75 66 72 S12 29.55F JAFFREY NH CLOUDY 75 71 87 S9 29.62F KEENE NH MOCLDY 77 70 79 S13 29.58S BURLINGTON VT CLOUDY 75 70 84 S8 29.51S MT. WASHINGTON FOG 55 55 100 SW28G36 N/A VSB 0 $$ NYZ052-076-240100- EASTERN NEW YORK CITY SKY/WX TMP DP RH WIND PRES REMARKS ALBANY MOCLDY 77 70 79 S9 29.57R 6HR MIN TEMP: 77; 6HR MAX TEMP: 86; 6HR PCP: TRACE; NEW YORK CITY LGT RAIN 80 72 76 S7 29.63S 6HR MIN TEMP: 80; 6HR MAX TEMP: 87; 6HR PCP: TRACE; $$ ANZALL-240100- MARINE OBSERVATIONS STATION/POSITION TIME TEMP WIND PRES VSBY WAVE AIR SEA DIR/SP/G HT/PER (UTC) (F) (DEG/KT/KT) (MB) (MI) (FT/S) BOSTON BUOY 2350 68 60 190/ 16/ 17 1002.6F 2/ 3 BUZZARDS BAY 2300 67 210/ 26/ 29 1005.2F NANTUCKET SOUND 2350 66 1005.4F 2/ 4 MASS BAY-STELLWA 2304 64 61 170/ 17/ 19 1001.9F 3/ 4 ISLE OF SHOALS 2300 67 160/ 27/ 27 1001.0F S OF BLOCK IS 2355 64 N/A 5/ 5 $$ ......................KEY......................... SKY/WX - SKY CONDITION/PRESENT WEATHER TMP - TEMPERATURE IN FAHRENHEIT DWPT - DEWPOINT IN FAHRENHEIT RH - RELATIVE HUMIDITY IN PERCENT WIND - DIRECTION AND SPEED IN MPH PRES - MEAN SEA LEVEL PRESSURE IN INCHES OF HG WCI - WIND CHILL INDEX VSB - VISIBILITY IN MILES HX - HEAT INDEX TC - TEMPERATURE IN CELSIUS VRB - VARIABLE WIND DIRECTION N/A - NOT AVAILABLE

USA.gov is the U.S. government's official web portal to all federal, state and local government web resources and services.